Home   Weather   Chongqing   Past weeks
Flag for China

Past Weather in Chongqing, Chongqing Municipality, China — Yesterday and Last 2 Weeks

Now
77 °F

Fog.


Feels Like: 78 °F
Forecast: 89 / 79 °F
Wind: 6 mph from South

Location: Chongqing Airport

Current Time: Jul 16, 2019 at 10:48:25 am

Latest Report: Jul 16, 2019 at 10:00 am


Visibility: 2 mi

Pressure: 29.62 "Hg

Humidity: 94%

Dew Point: 75 °F

Location of ChongqingLocation

Past Weather in Chongqing — Graph

°F

Chongqing Temperature Yesterday

Maximum temperature yesterday: 90 °F (at 2:00 pm)
Minimum temperature yesterday: 75 °F (at 2:00 am)
Average temperature yesterday: 80 °F

High & Low Weather Summary for the Past Weeks

 TemperatureHumidityPressure
High95 °F (Jul 2, 4:00 pm)100% (Jul 4, 12:00 pm)29.83 "Hg (Jul 4, 12:00 pm)
Low68 °F (Jul 9, 1:00 am)39% (Jul 2, 4:00 pm)29.53 "Hg (Jul 14, 4:00 pm)
Average78 °F79%29.68 "Hg
* Reported Jul 1 9:00 am — Jul 16 9:00 am, Chongqing. Weather by CustomWeather, © 2019

Note: Actual official high and low records may vary slightly from our data, if they occured in-between our weather recording intervals... More about our weather records

Advertising

Chongqing Weather History for the Previous 24 Hours

Scroll right to see more
 ConditionsComfort  
Time TempWeatherWind HumidityBarometerVisibility
9:00 am
Tue, Jul 16
79 °FFog.3 mph89%29.62 "Hg3 mi
8:00 am77 °FPassing clouds.1 mph94%29.62 "Hg4 mi
7:00 am75 °FLight fog.3 mph100%29.59 "Hg4 mi
6:00 am75 °FClear.No wind100%29.59 "Hg10 mi
5:00 am75 °FClear.3 mph94%29.59 "Hg10 mi
4:00 am75 °FClear.No wind100%29.59 "Hg10 mi
3:00 am75 °FClear.3 mph100%29.59 "Hg10 mi
2:00 am75 °FClear.3 mph100%29.62 "Hg10 mi
1:00 am77 °FPassing clouds.3 mph94%29.62 "HgN/A
12:00 am75 °FPassing clouds.3 mph100%29.65 "HgN/A
11:00 pm
Mon, Jul 15
75 °FRain showers. Passing clouds.3 mph94%29.65 "Hg4 mi
10:00 pm75 °FRain showers. Passing clouds.6 mph94%29.65 "Hg4 mi
9:00 pm75 °FSprinkles. Passing clouds.3 mph94%29.62 "Hg4 mi
8:00 pm77 °FSprinkles. Passing clouds.6 mph94%29.59 "Hg5 mi
7:00 pm75 °FThunderstorms. Fog.17 mph100%29.56 "Hg2 mi
6:00 pm88 °FSunny.10 mph62%29.53 "Hg10 mi
5:00 pm88 °FSunny.8 mph62%29.53 "Hg10 mi
4:00 pm84 °FPassing clouds.3 mph74%29.56 "HgN/A
3:00 pm88 °FScattered clouds.6 mph62%29.56 "HgN/A
2:00 pm90 °FPassing clouds.6 mph55%29.56 "HgN/A
1:00 pm88 °FPassing clouds.3 mph62%29.59 "HgN/A
12:00 pm88 °FPassing clouds.3 mph62%29.59 "HgN/A
11:00 am86 °FPassing clouds.6 mph66%29.62 "HgN/A
10:00 am84 °FPassing clouds.6 mph70%29.62 "HgN/A
Weather by CustomWeather, © 2019

See weather overview

LIVE PARTIAL LUNAR ECLIPSE – Watch the eclipse as it happens